Location: Unspecified
(0.0000°N, 0.0000°E)
Time: 20:10:53
(UTC+00:00)

USA 215 - Visible Passes

Search period start: 04 June 2023 00:00
Search period end: 14 June 2023 00:00
Orbit: 1101 x 1106 km, 123.0° (Epoch: 06 May)

Date Brightness Start Highest point End Pass type
(mag) Time Alt. Az. Time Alt. Az. Time Alt. Az.
05 Jun 5.6 02:45:20 10° N 02:45:47 12° N 02:45:47 12° N visible
06 Jun 5.9 02:01:15 10° NNE 02:01:19 10° NNE 02:01:19 10° NNE visible
07 Jun 5.3 03:02:53 10° N 03:04:13 15° NNW 03:04:13 15° NNW visible
08 Jun 5.5 02:18:47 10° NNE 02:19:46 15° NNE 02:19:46 15° NNE visible
09 Jun 5.1 03:20:26 10° N 03:22:42 18° NNW 03:22:42 18° NNW visible
10 Jun 5.2 02:36:20 10° NNE 02:38:17 21° NNE 02:38:17 21° NNE visible
11 Jun 5.9 01:53:44 10° NE 01:53:52 11° NE 01:53:52 11° NE visible
11 Jun 4.8 03:38:00 10° N 03:41:14 20° NNW 03:41:14 20° NNW visible
12 Jun 4.7 02:53:52 10° NNE 02:56:50 29° NNE 02:56:50 29° NNE visible
13 Jun 5.5 02:11:16 10° NE 02:12:28 16° NE 02:12:28 16° NE visible
13 Jun 4.6 03:55:33 10° N 03:59:49 22° NW 03:59:49 22° NW visible
